Flag for Germany Weather past 2 weeks in Öhringen, Baden-Württemberg, Germany

Now
44 °F

Clear.


Feels Like: 44 °F
Forecast: 37 / 60 °F
Wind: 1 mph from Southeast

Location: Oehringen

Current Time: Sep 24, 2014 at 12:57:03 AM

Latest Report: Sep 24, 2014 at 12:00 AM


Visibility: 8 mi

Pressure: 30.12 "Hg

Humidity: 93%

Dew point: 42 °F

Location of ÖhringenLocation

Historic Weather in Öhringen — Graph

°F

Öhringen temperature yesterday

Maximum temperature yesterday: 60 °F (at 4:00 PM)
Minimum temperature yesterday: 43 °F (at 4:00 AM)
Average temperature yesterday: 50 °F

Past Weeks' High & Low Weather Summary

 TemperatureHumidityPressure
High76 °F (Sep 18, 4:00 PM)99% (Sep 12, 3:00 PM)30.24 "Hg (Sep 12, 3:00 PM)
Low43 °F (Sep 23, 4:00 AM)45% (Sep 10, 4:00 PM)29.84 "Hg (Sep 18, 4:00 PM)
Average60 °F84%30.02 "Hg
* Reported Midnight between Sep 8 and Sep 9 — Midnight between Sep 23 and Sep 24, Öhringen, Weather by CustomWeather, © 2014

Note: Actual official high and low records may vary slightly from our data, if they occured in-between our weather recording intervals... More about our weather records

Advertising

Öhringen weather history for previous 24 hours

 ConditionsComfort  
Time TempWeatherWind HumidityBarometerVisibility
12:00 AM
Sep 24
44 °FClear.1 mph93%30.12 "Hg7 mi
11:00 PM
Sep 23
46 °FPassing clouds.2 mph92%30.12 "Hg7 mi
10:00 PM47 °FClear.1 mph92%30.13 "Hg6 mi
9:00 PM49 °FClear.2 mph88%30.12 "Hg9 mi
8:00 PM53 °FClear.3 mph72%30.10 "Hg16 mi
7:00 PM57 °FSunny.2 mph63%30.08 "Hg19 mi
6:00 PM59 °FSunny.3 mph54%30.09 "Hg17 mi
5:00 PM60 °FSunny.2 mph52%30.11 "Hg18 mi
4:00 PM60 °FPassing clouds.2 mph49%30.13 "Hg17 mi
3:00 PM59 °FPassing clouds.1 mph49%30.15 "Hg19 mi
2:00 PM55 °FPartly sunny.1 mph57%30.19 "Hg17 mi
1:00 PM56 °FOvercast.2 mph54%30.20 "Hg17 mi
12:00 PM53 °FPassing clouds.1 mph73%30.22 "Hg7 mi
11:00 AM48 °FScattered clouds.1 mph84%30.23 "Hg5 mi
10:00 AM47 °FFog.1 mph87%30.24 "Hg4 mi
9:00 AM46 °FFog.1 mph94%30.23 "Hg2 mi
8:00 AM45 °FFog.2 mph97%30.23 "Hg2 mi
7:00 AM46 °FFog.2 mph95%30.21 "Hg2 mi
6:00 AM45 °FFog.2 mph97%30.19 "Hg2 mi
5:00 AM45 °FFog.2 mph97%30.19 "Hg2 mi
4:00 AM43 °FFog.1 mph97%30.19 "Hg3 mi
3:00 AM44 °FFog.2 mph98%30.19 "Hg3 mi
2:00 AM44 °FFog.2 mph96%30.19 "Hg3 mi
1:00 AM46 °FPassing clouds.2 mph93%30.19 "Hg6 mi
12:00 AM47 °FOvercast.3 mph93%30.19 "Hg6 mi
Weather by CustomWeather, © 2014

See weather overviewHow to use our weather pages